Content
SEND FEEDBACK

Daily
Averages
Monthly
Summary
United States of America

SALARNATOF, ALASKA


Home > North America > United States > Alaska
Elevation: 11 feet     Latitude: 60 41N     Longitude: 151 23W

WEATHER
 
SELECT A DAY
Number of Records: 201,760;   Date Range: 1/1/95 - 9/22/14
 
SHARE

PRINT THIS DATA

[ ← Previous Day ]
WEATHER ALMANAC - JANUARY 31, 2013
[ Next Day → ]
[ °C ]   °F
Weather ElementAverageHighLow
Temperature28 °F32 °F (12:42 am)24.1 °F (6:53 pm)
Dewpoint27.3 °F30.9 °F (12:53 am)23 °F (6:53 pm)
Humidity97.4 %100 % (3:22 am)93 % (12:42 am)
Barometer29.84 in29.95 in (10:53 pm)29.70 in (12:42 am)
Wind Speed3.6 mph9.2 mph (11:53 pm)
Weather ElementAverage
Visibility2.2 mi
Wind DirectionE (84.5 °)

Weather ElementTotal
Precipitation---
Heating Degree Days37 (Base 65)
Averaged from 58 records on January 31, 2013
WEATHER CONDITIONS BREAKOUT
WIND DIRECTION BREAKOUT
WEATHER BY HOUR - JANUARY 31, 2013
[ °C ]   °F
Local TimeTemperatureDewpointHumidityBarometerVisibilityWind DirectionWind SpeedGust SpeedPrecipitationEventsConditions
12:42 AM32.0 °F30.2 °F93 %29.70 in10.0 miCalm0.00 inOvercast
12:51 AM32.0 °F30.2 °F93 %29.70 in10.0 miCalm0.00 inOvercast
12:53 AM32.0 °F30.9 °F96 %29.71 in10.0 miCalm0.00 inOvercast
1:53 AM30.9 °F30.0 °F96 %29.73 in10.0 miCalm0.00 inOvercast
3:22 AM30.2 °F30.2 °F100 %29.73 in2.5 miENE (60°)4.6 mph0.00 inOvercast
3:38 AM30.2 °F30.2 °F100 %29.74 in1.2 miCalm0.00 inOvercast
3:53 AM30.0 °F30.0 °F100 %29.75 in0.8 miCalm0.00 inMist
4:18 AM30.2 °F30.2 °F100 %29.74 in1.0 miCalmMist
4:36 AM30.2 °F30.2 °F100 %29.75 in0.8 miCalmMist
4:44 AM30.2 °F30.2 °F100 %29.75 in0.8 miNNW (340°)3.5 mphMist
4:53 AM30.0 °F30.0 °F100 %29.76 in1.5 miNorth (360°)3.5 mphOvercast
5:04 AM30.2 °F28.4 °F93 %29.76 in2.5 miCalmOvercast
5:16 AM28.4 °F28.4 °F100 %29.76 in3.0 miNNW (330°)4.6 mphOvercast
5:31 AM28.4 °F28.4 °F100 %29.76 in2.5 miNorth (10°)3.5 mphOvercast
5:51 AM28.4 °F28.4 °F100 %29.77 in1.5 miNW (320°)4.6 mphOvercast
5:53 AM28.9 °F28.0 °F96 %29.78 in1.5 miNW (320°)4.6 mphOvercast
6:31 AM28.4 °F28.4 °F100 %29.78 in0.8 miCalmMist
6:53 AM28.9 °F28.9 °F100 %29.79 in0.8 miNE (50°)3.5 mphMist
7:44 AM26.6 °F26.6 °F100 %29.79 in0.8 miCalmMist
7:53 AM28.0 °F28.0 °F100 %29.80 in0.8 miCalmMist
8:05 AM28.4 °F26.6 °F93 %29.79 in0.8 miCalmMist
8:53 AM28.0 °F28.0 °F100 %29.82 in0.5 miCalmFogLight Freezing Fog
9:02 AM28.4 °F28.4 °F100 %29.81 in0.8 miCalmOvercast
9:53 AM28.0 °F27.0 °F96 %29.84 in1.0 miNW (320°)3.5 mphMist
10:01 AM28.4 °F26.6 °F93 %29.83 in1.0 miNorth (350°)3.5 mphMist
10:29 AM26.6 °F26.6 °F100 %29.84 in0.8 miCalmMist
10:53 AM27.0 °F27.0 °F100 %29.85 in0.8 miCalmOvercast
11:03 AM28.4 °F28.4 °F100 %29.84 in1.0 miENE (60°)3.5 mphOvercast
11:10 AM28.4 °F26.6 °F93 %29.84 in0.5 miNE (50°)3.5 mphFogLight Freezing Fog
11:31 AM28.4 °F26.6 °F93 %29.85 in0.2 miCalmFogLight Freezing Fog
11:53 AM28.0 °F28.0 °F100 %29.87 in0.2 miCalmFogLight Freezing Fog
12:53 PM28.9 °F28.0 °F96 %29.88 in0.2 miNE (50°)4.6 mphFogLight Freezing Fog
1:53 PM28.9 °F28.0 °F96 %29.90 in0.2 miNNE (20°)4.6 mphFogLight Freezing Fog
2:53 PM28.9 °F28.0 °F96 %29.90 in0.2 miNNE (20°)4.6 mphFogLight Freezing Fog
3:53 PM28.0 °F28.0 °F100 %29.91 in0.2 miEast (80°)4.6 mphFogLight Freezing Fog
4:08 PM28.4 °F28.4 °F100 %29.90 in0.5 miCalmFogLight Freezing Fog
4:20 PM28.4 °F28.4 °F100 %29.90 in0.2 miENE (60°)3.5 mphFogLight Freezing Fog
4:44 PM28.4 °F26.6 °F93 %29.90 in0.5 miNNE (30°)8.1 mphFogLight Freezing Fog
4:53 PM28.0 °F28.0 °F100 %29.90 in0.2 miNE (40°)8.1 mphFogLight Freezing Fog
5:53 PM26.1 °F26.1 °F100 %29.91 in1.2 miNorth (10°)5.8 mphOvercast
6:08 PM24.8 °F24.8 °F100 %29.91 in3.0 miNNE (30°)5.8 mphOvercast
6:17 PM24.8 °F24.8 °F100 %29.91 in1.8 miNNE (20°)4.6 mphOvercast
6:20 PM24.8 °F24.8 °F100 %29.91 in1.5 miNNE (20°)4.6 mphOvercast
6:53 PM24.1 °F23.0 °F96 %29.92 in2.5 miNorth (10°)8.1 mphOvercast
6:59 PM24.8 °F23.0 °F93 %29.91 in1.5 miNorth (360°)6.9 mphOvercast
7:12 PM24.8 °F24.8 °F100 %29.90 in1.8 miNorth (360°)5.8 mphOvercast
7:19 PM24.8 °F23.0 °F93 %29.91 in2.5 miNorth (360°)5.8 mphOvercast
7:27 PM24.8 °F23.0 °F93 %29.91 in5.0 miNorth (350°)5.8 mphOvercast
7:53 PM25.0 °F24.1 °F96 %29.93 in4.0 miNorth (10°)4.6 mphOvercast
8:23 PM24.8 °F24.8 °F100 %29.92 in1.8 miNNE (30°)5.8 mphOvercast
8:35 PM26.6 °F24.8 °F93 %29.92 in2.0 miNNE (20°)8.1 mphOvercast
8:39 PM26.6 °F24.8 °F93 %29.92 in1.8 miNNE (20°)6.9 mphOvercast
8:53 PM26.1 °F25.0 °F96 %29.93 in1.5 miNorth (10°)5.8 mphOvercast
9:18 PM26.6 °F26.6 °F100 %29.93 in2.5 miNorth (360°)5.8 mphOvercast
9:51 PM28.4 °F26.6 °F93 %29.93 in4.0 miNorth (10°)8.1 mphOvercast
9:53 PM28.0 °F27.0 °F96 %29.94 in4.0 miNorth (10°)8.1 mphOvercast
10:53 PM28.9 °F28.0 °F96 %29.95 in7.0 miNNE (20°)5.8 mphOvercast
11:53 PM28.9 °F28.0 °F96 %29.95 in8.0 miNNE (20°)9.2 mphOvercast
Hourly data recorded from PAEN, located miles away from Salarnatof, Alaska







STORIES FROM OUR PARTNERS